Location: Ammerl�gen
(47.2167°N, 9.6000°E)
Time: 09:11:13
(UTC+00:00)

Resurs 1-3 - Pass Details

Date: 21 April 2021
Orbit: 629 x 633 km, 97.9° (Epoch: 06 May)

Event Time Altitude Azimuth Distance (km) Brightness Sun altitude
Exits shadow 18:48:23 - 140° (SE) 2,541 6.1 -5.4°
Reaches altitude 10° 18:49:46 10° 134° (SE) 2,010 5.6 -5.7°
Maximum altitude 18:53:46 36° 68° (ENE) 1,002 4.3 -6.3°
Drops below altitude 10° 18:57:47 10° 2° (N) 2,022 6.5 -6.9°
Sets 19:00:07 0° 354° (N) 2,934 7.5 -7.2°
